Regional Weather Roundup
Issued by NWS

Home | Current Version | Previous Version | Graphics & Text | Print | Product List | Glossary On
Versions: 1 2 3 4 5 6 7 8 9 10 11 12 13 14 15 16 17 18 19 20 21 22 23 24 25 26 27 28 29 30 31 32 33 34 35 36 37 38 39 40 41 42 43 44 45 46 47 48 49 50
000
ASUS43 KDTX 220510
RWRMI
MICHIGAN HOURLY REGIONAL WEATHER ROUNDUP
NATIONAL WEATHER SERVICE DETROIT/PONTIAC MI
1200 AM EST WED NOV 22 2017

NOTE: "FAIR" INDICATES FEW OR NO CLOUDS BELOW 12,000 FEET WITH NO
SIGNIFICANT WEATHER AND/OR OBSTRUCTION TO VISIBILITY.

MIZ047>049-052>055-059>063-066>070-074>076-081>083-220600-
SOUTHEAST LOWER MICHIGAN

CITY           SKY/WX    TMP DP  RH WIND       PRES   REMARKS
ADRIAN         CLOUDY    34  25  69 NW10      30.05R WCI  26
ALMA           CLOUDY    32  20  61 NW12      30.08R WCI  23
ANN ARBOR      CLOUDY    34  26  72 W10       30.03R WCI  26
BAD AXE        CLOUDY    31  22  68 NW13G18   30.02R WCI  21
CARO           CLOUDY    32  21  64 NW14      30.03R WCI  22
DETROIT CITY   CLOUDY    35  23  61 NW14G20   30.02R WCI  26
DETROIT        CLOUDY    36  25  64 NW15G22   30.03R WCI  27
FLINT          CLOUDY    32  20  61 NW13      30.04R WCI  22
GROSSE ILE     CLOUDY    36  29  75 NW12      30.01R WCI  28
HILLSDALE      CLOUDY    32  23  69 NW9       30.03R WCI  24
HOWELL         CLOUDY    32  24  71 NW8G20    30.03R WCI  25

CITY           SKY/WX    TMP DP  RH WIND       PRES   REMARKS
JACKSON        CLOUDY    33  21  61 NW14G20   30.05R WCI  23
LAMBERTVILLE   CLOUDY    37  30  74 NW5       30.04R WCI  33
LANSING        CLOUDY    32  22  66 NW13      30.07R WCI  22
LAPEER         CLOUDY    32  22  65 NW13G20   30.03R WCI  22
MASON          CLOUDY    34  23  64 NW13      30.05R WCI  25
MONROE         CLOUDY    37  30  77 W8        30.02R WCI  30
MT. CLEMENS    CLOUDY    34  25  69 NW12      30.00R WCI  26
PONTIAC        CLOUDY    32  23  69 NW15      30.00R WCI  22
PORT HOPE        N/A     32  20  61 NW17G28   30.00R WCI  21
PORT HURON     CLOUDY    34  25  69 NW9       30.01R WCI  26
TRI CITIES     CLOUDY    32  21  64 NW20G25   30.06R WCI  20
MIDLAND        CLOUDY    32  20  61 NW8G20    30.06R WCI  25
TROY           CLOUDY    37  24  59 NW13      30.03R WCI  28
SAGINAW HB     CLOUDY    32  21  64 N14G22    30.05R WCI  22
$$
MIZ043>046-050>051-056>058-064>065-071>073-077>080-220600-
SOUTHWEST LOWER MICHIGAN

CITY           SKY/WX    TMP DP  RH WIND       PRES   REMARKS
BATTLE CREEK   CLOUDY    33  21  61 NW10      30.08R WCI  25
BENTON HARBOR  CLOUDY    35  21  56 VRB6G21   30.13R WCI  30
BIG RAPIDS     FLURRIES  28  19  67 NW8       30.09R WCI  20
COLDWATER      CLOUDY    33  22  65 NW10G17   30.07R WCI  25
FREMONT        CLOUDY    29  20  69 N13G20    30.11R WCI  19
HOLLAND        CLOUDY    33  21  61 N8        30.12R WCI  26
GRAND RAPIDS   FLURRIES  32  22  66 NW9       30.10R WCI  24
IONIA          CLOUDY    32  20  62 NW7       30.08R WCI  26
KALAMAZOO      CLOUDY    33  20  58 N12       30.09R WCI  24
LUDINGTON      CLOUDY    28  17  64 N10G17    30.13S WCI  19
MARSHALL       CLOUDY    32  21  63 NW7G17    30.06R WCI  26
MOUNT PLEASANT CLOUDY    31  18  57 NW10G16   30.07R WCI  23
MUSKEGON       CLOUDY    32  20  61 N14G22    30.13R WCI  22
SOUTH HAVEN    CLOUDY    36  24  61 NW8G22    30.11R WCI  29
$$
MIZ016>042-220600-
NORTHERN LOWER MICHIGAN

CITY           SKY/WX    TMP DP  RH WIND       PRES   REMARKS
ALPENA         CLOUDY    29  16  58 NW17G23   30.02R WCI  17
BEAVER ISLAND  CLOUDY    28  22  78 NW16G25   30.08R WCI  17
BELLAIRE       CLOUDY    28  23  81 NW3       30.08R
CADILLAC       CLOUDY    25  15  67 NW10G17   30.05R WCI  15
CHARLEVOIX     CLOUDY    30  18  60 NW17G24   30.10R WCI  18
FRANKFORT      CLOUDY    31  18  59 N10G20    30.12R WCI  22
GAYLORD        LGT SNOW  24  18  77 NW8       30.01R WCI  15
GRAYLING       CLOUDY    25  18  75 W8        30.04R WCI  16
HARBOR SPRINGS CLOUDY    28  18  67 W9        30.05R WCI  19
HOUGHTON LAKE  FLURRIES  26  20  77 NW9       30.04R WCI  17
MANISTEE       FLURRIES  28  18  66 NW10G16   30.13R WCI  19
OSCODA         PTCLDY    28  14  56 N14       30.02R WCI  17
PELLSTON       FLURRIES  27  22  81 N9        30.05R WCI  18
ROGERS CITY    CLOUDY    28  17  62 NW13G25   30.03R WCI  18
TRAVERSE CITY  CLOUDY    29  17  61 W12       30.08S WCI  19
$$
MIZ007>008-015-220600-
EASTERN UPPER MICHIGAN

CITY           SKY/WX    TMP DP  RH WIND       PRES   REMARKS
KINROSS        FLURRIES  22  13  68 NE9       30.03R WCI  12
MACKINAC ISLAN CLOUDY    28  17  65 NW9       30.04R WCI  19
NEWBERRY       LGT SNOW  23  22  97 W9        30.04R WCI  13
S. S. MARIE    FLURRIES  22  11  62 NE8       30.04R WCI  12
MUNISING         N/A     27  26  96 N17G26    30.09R WCI  14
$$
MIZ004>006-011>014-085-220600-
CENTRAL UPPER MICHIGAN

CITY           SKY/WX    TMP DP  RH WIND       PRES   REMARKS
MANISTIQUE     FLURRIES  23  18  81 W7        30.09R WCI  15
ESCANABA       FLURRIES  22  17  81 W12       30.14R WCI  10
MENOMINEE      CLOUDY    25  14  63 NW7       30.18R WCI  17
SAWYER-GWINN   FLURRIES  21  15  77 NW10      30.10R WCI  10
$$
MIZ001>003-009>011-084-220600-
WESTERN UPPER MICHIGAN

CITY           SKY/WX    TMP DP  RH WIND       PRES   REMARKS
IRON MOUNTAIN  LGT SNOW  22  14  71 NW7       30.12R WCI  13
HOUGHTON       FLURRIES  22  12  65 NW13      30.10R WCI  10
COPPER HARBOR    N/A     28  19  69 N20G29    30.10R WCI  15
IRONWOOD       FLURRIES  20  14  77 W9        30.18R WCI   9
$$

ABBREVIATIONS USED IN REMARKS
   TC - TEMPERATURE IN CELSIUS
  WCI - WIND CHILL INDEX
   HX - HEAT INDEX
  VSB - VISIBILITY





USA.gov is the U.S. government's official web portal to all federal, state and local government web resources and services.